[{"OBJECT_NAME":"INTELSAT 17 (IS-17)","OBJECT_ID":"2010-065B","EPOCH":"2026-09-12T03:57:09.025920","MEAN_MOTION":1.00271757,"ECCENTRICITY":0.00025764,"INCLINATION":0.0045,"RA_OF_ASC_NODE":163.3202,"ARG_OF_PERICENTER":15.156,"MEAN_ANOMALY":297.9902,"EPHEMERIS_TYPE":0,"CLASSIFICATION_TYPE":"U","NORAD_CAT_ID":37238,"ELEMENT_SET_NO":999,"REV_AT_EPOCH":5412,"BSTAR":0,"MEAN_MOTION_DOT":-1.7e-7,"MEAN_MOTION_DDOT":0},{"OBJECT_NAME":"INTELSAT 28 (IS-28)","OBJECT_ID":"2011-016A","EPOCH":"2026-09-12T06:54:37.008576","MEAN_MOTION":1.00273698,"ECCENTRICITY":0.00035353,"INCLINATION":2.0252,"RA_OF_ASC_NODE":81.4513,"ARG_OF_PERICENTER":93.9006,"MEAN_ANOMALY":247.9091,"EPHEMERIS_TYPE":0,"CLASSIFICATION_TYPE":"U","NORAD_CAT_ID":37392,"ELEMENT_SET_NO":999,"REV_AT_EPOCH":5415,"BSTAR":0,"MEAN_MOTION_DOT":-0.00000238,"MEAN_MOTION_DDOT":0},{"OBJECT_NAME":"INTELSAT 18 (IS-18)","OBJECT_ID":"2011-056A","EPOCH":"2026-09-12T06:02:38.660640","MEAN_MOTION":1.00274025,"ECCENTRICITY":0.00019998,"INCLINATION":0.0447,"RA_OF_ASC_NODE":267.0885,"ARG_OF_PERICENTER":274.3421,"MEAN_ANOMALY":80.5009,"EPHEMERIS_TYPE":0,"CLASSIFICATION_TYPE":"U","NORAD_CAT_ID":37834,"ELEMENT_SET_NO":999,"REV_AT_EPOCH":5468,"BSTAR":0,"MEAN_MOTION_DOT":3.9e-7,"MEAN_MOTION_DDOT":0},{"OBJECT_NAME":"INTELSAT 22 (IS-22)","OBJECT_ID":"2012-011A","EPOCH":"2026-09-12T04:55:21.489312","MEAN_MOTION":1.00271774,"ECCENTRICITY":0.00017398,"INCLINATION":0.0233,"RA_OF_ASC_NODE":115.8839,"ARG_OF_PERICENTER":54.9321,"MEAN_ANOMALY":326.3353,"EPHEMERIS_TYPE":0,"CLASSIFICATION_TYPE":"U","NORAD_CAT_ID":38098,"ELEMENT_SET_NO":999,"REV_AT_EPOCH":806,"BSTAR":0,"MEAN_MOTION_DOT":-7.3e-7,"MEAN_MOTION_DDOT":0},{"OBJECT_NAME":"INTELSAT 19 (IS-19)","OBJECT_ID":"2012-030A","EPOCH":"2026-09-12T08:08:38.611392","MEAN_MOTION":1.00270275,"ECCENTRICITY":0.00030751,"INCLINATION":0.0188,"RA_OF_ASC_NODE":164.9354,"ARG_OF_PERICENTER":12.5546,"MEAN_ANOMALY":102.0177,"EPHEMERIS_TYPE":0,"CLASSIFICATION_TYPE":"U","NORAD_CAT_ID":38356,"ELEMENT_SET_NO":999,"REV_AT_EPOCH":5132,"BSTAR":0,"MEAN_MOTION_DOT":0,"MEAN_MOTION_DDOT":0},{"OBJECT_NAME":"INTELSAT 20 (IS-20)","OBJECT_ID":"2012-043A","EPOCH":"2026-09-12T04:55:21.489312","MEAN_MOTION":1.00271259,"ECCENTRICITY":0.00014801,"INCLINATION":0.0165,"RA_OF_ASC_NODE":146.4484,"ARG_OF_PERICENTER":19.7882,"MEAN_ANOMALY":327.3268,"EPHEMERIS_TYPE":0,"CLASSIFICATION_TYPE":"U","NORAD_CAT_ID":38740,"ELEMENT_SET_NO":999,"REV_AT_EPOCH":5162,"BSTAR":0,"MEAN_MOTION_DOT":-3.9e-7,"MEAN_MOTION_DDOT":0},{"OBJECT_NAME":"INTELSAT 21 (IS-21)","OBJECT_ID":"2012-045A","EPOCH":"2026-09-12T06:47:07.726848","MEAN_MOTION":1.00269997,"ECCENTRICITY":0.00023924,"INCLINATION":0.0222,"RA_OF_ASC_NODE":176.9513,"ARG_OF_PERICENTER":10.3833,"MEAN_ANOMALY":207.7416,"EPHEMERIS_TYPE":0,"CLASSIFICATION_TYPE":"U","NORAD_CAT_ID":38749,"ELEMENT_SET_NO":999,"REV_AT_EPOCH":5139,"BSTAR":0,"MEAN_MOTION_DOT":0,"MEAN_MOTION_DDOT":0},{"OBJECT_NAME":"INTELSAT 23 (IS-23)","OBJECT_ID":"2012-057A","EPOCH":"2026-09-12T05:05:54.930912","MEAN_MOTION":1.00268194,"ECCENTRICITY":0.00017864,"INCLINATION":0.0371,"RA_OF_ASC_NODE":274.6457,"ARG_OF_PERICENTER":332.9122,"MEAN_ANOMALY":127.1239,"EPHEMERIS_TYPE":0,"CLASSIFICATION_TYPE":"U","NORAD_CAT_ID":38867,"ELEMENT_SET_NO":999,"REV_AT_EPOCH":5082,"BSTAR":0,"MEAN_MOTION_DOT":-0.000003,"MEAN_MOTION_DDOT":0},{"OBJECT_NAME":"FM-6","OBJECT_ID":"2013-058A","EPOCH":"2026-09-12T03:05:14.004384","MEAN_MOTION":1.00273543,"ECCENTRICITY":0.00008675,"INCLINATION":0.0275,"RA_OF_ASC_NODE":128.968,"ARG_OF_PERICENTER":132.4911,"MEAN_ANOMALY":19.5877,"EPHEMERIS_TYPE":0,"CLASSIFICATION_TYPE":"U","NORAD_CAT_ID":39360,"ELEMENT_SET_NO":999,"REV_AT_EPOCH":4694,"BSTAR":0,"MEAN_MOTION_DOT":0,"MEAN_MOTION_DDOT":0},{"OBJECT_NAME":"INTELSAT 30 (IS-30)","OBJECT_ID":"2014-062A","EPOCH":"2026-09-12T04:53:56.080320","MEAN_MOTION":1.00272978,"ECCENTRICITY":0.00015455,"INCLINATION":0.0158,"RA_OF_ASC_NODE":92.0614,"ARG_OF_PERICENTER":311.8865,"MEAN_ANOMALY":285.7043,"EPHEMERIS_TYPE":0,"CLASSIFICATION_TYPE":"U","NORAD_CAT_ID":40271,"ELEMENT_SET_NO":999,"REV_AT_EPOCH":766,"BSTAR":0,"MEAN_MOTION_DOT":-0.00000166,"MEAN_MOTION_DDOT":0},{"OBJECT_NAME":"DIRECTV 14","OBJECT_ID":"2014-078B","EPOCH":"2026-09-12T04:52:48.688320","MEAN_MOTION":1.00268393,"ECCENTRICITY":0.00006353,"INCLINATION":0.0171,"RA_OF_ASC_NODE":135.252,"ARG_OF_PERICENTER":303.309,"MEAN_ANOMALY":246.6166,"EPHEMERIS_TYPE":0,"CLASSIFICATION_TYPE":"U","NORAD_CAT_ID":40333,"ELEMENT_SET_NO":999,"REV_AT_EPOCH":4291,"BSTAR":0,"MEAN_MOTION_DOT":0,"MEAN_MOTION_DDOT":0},{"OBJECT_NAME":"DIRECTV 15","OBJECT_ID":"2015-026A","EPOCH":"2026-09-12T01:26:30.969888","MEAN_MOTION":1.00273413,"ECCENTRICITY":0.00003566,"INCLINATION":0.0155,"RA_OF_ASC_NODE":111.1051,"ARG_OF_PERICENTER":23.8027,"MEAN_ANOMALY":134.9299,"EPHEMERIS_TYPE":0,"CLASSIFICATION_TYPE":"U","NORAD_CAT_ID":40663,"ELEMENT_SET_NO":999,"REV_AT_EPOCH":4133,"BSTAR":0,"MEAN_MOTION_DOT":-0.00000118,"MEAN_MOTION_DDOT":0},{"OBJECT_NAME":"SKY MEXICO-1","OBJECT_ID":"2015-026B","EPOCH":"2026-09-12T06:41:15.789408","MEAN_MOTION":1.00272633,"ECCENTRICITY":0.00019417,"INCLINATION":0.0211,"RA_OF_ASC_NODE":125.1452,"ARG_OF_PERICENTER":45.2647,"MEAN_ANOMALY":202.4045,"EPHEMERIS_TYPE":0,"CLASSIFICATION_TYPE":"U","NORAD_CAT_ID":40664,"ELEMENT_SET_NO":999,"REV_AT_EPOCH":4132,"BSTAR":0,"MEAN_MOTION_DOT":-0.00000249,"MEAN_MOTION_DDOT":0},{"OBJECT_NAME":"INTELSAT 34 (IS-34)","OBJECT_ID":"2015-039A","EPOCH":"2026-09-11T23:57:17.027136","MEAN_MOTION":1.00270229,"ECCENTRICITY":0.00003332,"INCLINATION":0.0122,"RA_OF_ASC_NODE":154.6115,"ARG_OF_PERICENTER":237.7415,"MEAN_ANOMALY":262.468,"EPHEMERIS_TYPE":0,"CLASSIFICATION_TYPE":"U","NORAD_CAT_ID":40874,"ELEMENT_SET_NO":999,"REV_AT_EPOCH":4050,"BSTAR":0,"MEAN_MOTION_DOT":0,"MEAN_MOTION_DDOT":0},{"OBJECT_NAME":"INTELSAT 31 (IS-31)","OBJECT_ID":"2016-035A","EPOCH":"2026-09-12T04:53:56.080320","MEAN_MOTION":1.00273031,"ECCENTRICITY":0.00016357,"INCLINATION":0.0266,"RA_OF_ASC_NODE":239.6497,"ARG_OF_PERICENTER":68.2702,"MEAN_ANOMALY":21.7385,"EPHEMERIS_TYPE":0,"CLASSIFICATION_TYPE":"U","NORAD_CAT_ID":41581,"ELEMENT_SET_NO":999,"REV_AT_EPOCH":3755,"BSTAR":0,"MEAN_MOTION_DOT":-0.00000166,"MEAN_MOTION_DDOT":0},{"OBJECT_NAME":"INTELSAT 36 (IS-36)","OBJECT_ID":"2016-053A","EPOCH":"2026-09-12T02:15:18.791136","MEAN_MOTION":1.0027049,"ECCENTRICITY":0.00018489,"INCLINATION":0.0165,"RA_OF_ASC_NODE":137.089,"ARG_OF_PERICENTER":215.4906,"MEAN_ANOMALY":100.8566,"EPHEMERIS_TYPE":0,"CLASSIFICATION_TYPE":"U","NORAD_CAT_ID":41747,"ELEMENT_SET_NO":999,"REV_AT_EPOCH":3682,"BSTAR":0,"MEAN_MOTION_DOT":0,"MEAN_MOTION_DDOT":0},{"OBJECT_NAME":"INTELSAT 32E (IS-32E)","OBJECT_ID":"2017-007B","EPOCH":"2026-09-12T06:51:22.320000","MEAN_MOTION":1.00273651,"ECCENTRICITY":0.00004396,"INCLINATION":0.023,"RA_OF_ASC_NODE":241.2185,"ARG_OF_PERICENTER":215.8694,"MEAN_ANOMALY":313.8773,"EPHEMERIS_TYPE":0,"CLASSIFICATION_TYPE":"U","NORAD_CAT_ID":41945,"ELEMENT_SET_NO":999,"REV_AT_EPOCH":3509,"BSTAR":0,"MEAN_MOTION_DOT":-0.00000283,"MEAN_MOTION_DDOT":0},{"OBJECT_NAME":"INTELSAT 35E (IS-35E)","OBJECT_ID":"2017-041A","EPOCH":"2026-09-12T06:53:52.080576","MEAN_MOTION":1.00271117,"ECCENTRICITY":0.00020617,"INCLINATION":0.0214,"RA_OF_ASC_NODE":132.4279,"ARG_OF_PERICENTER":43.7147,"MEAN_ANOMALY":244.1293,"EPHEMERIS_TYPE":0,"CLASSIFICATION_TYPE":"U","NORAD_CAT_ID":42818,"ELEMENT_SET_NO":999,"REV_AT_EPOCH":3368,"BSTAR":0,"MEAN_MOTION_DOT":-0.00000253,"MEAN_MOTION_DDOT":0},{"OBJECT_NAME":"INTELSAT 37E (IS-37E)","OBJECT_ID":"2017-059A","EPOCH":"2026-09-12T06:58:36.626016","MEAN_MOTION":1.0027046,"ECCENTRICITY":0.00026569,"INCLINATION":0.025,"RA_OF_ASC_NODE":152.7439,"ARG_OF_PERICENTER":16.4073,"MEAN_ANOMALY":268.803,"EPHEMERIS_TYPE":0,"CLASSIFICATION_TYPE":"U","NORAD_CAT_ID":42950,"ELEMENT_SET_NO":999,"REV_AT_EPOCH":3293,"BSTAR":0,"MEAN_MOTION_DOT":0,"MEAN_MOTION_DDOT":0},{"OBJECT_NAME":"AZERSPACE 2 (IS-38)","OBJECT_ID":"2018-074A","EPOCH":"2026-09-12T03:51:17.089344","MEAN_MOTION":1.00270318,"ECCENTRICITY":0.00018711,"INCLINATION":0.0225,"RA_OF_ASC_NODE":162.5541,"ARG_OF_PERICENTER":1.0992,"MEAN_ANOMALY":290.4586,"EPHEMERIS_TYPE":0,"CLASSIFICATION_TYPE":"U","NORAD_CAT_ID":43632,"ELEMENT_SET_NO":999,"REV_AT_EPOCH":2931,"BSTAR":0,"MEAN_MOTION_DOT":0,"MEAN_MOTION_DDOT":0},{"OBJECT_NAME":"HORIZONS-3E","OBJECT_ID":"2018-074B","EPOCH":"2026-09-12T02:44:01.038624","MEAN_MOTION":1.00269242,"ECCENTRICITY":0.0000476,"INCLINATION":0.0135,"RA_OF_ASC_NODE":171.3269,"ARG_OF_PERICENTER":27.6804,"MEAN_ANOMALY":2.1227,"EPHEMERIS_TYPE":0,"CLASSIFICATION_TYPE":"U","NORAD_CAT_ID":43633,"ELEMENT_SET_NO":999,"REV_AT_EPOCH":2921,"BSTAR":0,"MEAN_MOTION_DOT":-4.6e-7,"MEAN_MOTION_DDOT":0},{"OBJECT_NAME":"AT&T T-16","OBJECT_ID":"2019-034A","EPOCH":"2026-09-12T03:09:43.573248","MEAN_MOTION":1.00272416,"ECCENTRICITY":0.00005414,"INCLINATION":0.0136,"RA_OF_ASC_NODE":112.7011,"ARG_OF_PERICENTER":300.8744,"MEAN_ANOMALY":244.1466,"EPHEMERIS_TYPE":0,"CLASSIFICATION_TYPE":"U","NORAD_CAT_ID":44333,"ELEMENT_SET_NO":999,"REV_AT_EPOCH":2650,"BSTAR":0,"MEAN_MOTION_DOT":-0.0000013,"MEAN_MOTION_DDOT":0},{"OBJECT_NAME":"INTELSAT 39 (IS-39)","OBJECT_ID":"2019-049B","EPOCH":"2026-09-12T03:56:09.122208","MEAN_MOTION":1.00269817,"ECCENTRICITY":0.0000632,"INCLINATION":0.0227,"RA_OF_ASC_NODE":173.0384,"ARG_OF_PERICENTER":276.0626,"MEAN_ANOMALY":23.0513,"EPHEMERIS_TYPE":0,"CLASSIFICATION_TYPE":"U","NORAD_CAT_ID":44476,"ELEMENT_SET_NO":999,"REV_AT_EPOCH":2600,"BSTAR":0,"MEAN_MOTION_DOT":0,"MEAN_MOTION_DDOT":0},{"OBJECT_NAME":"GALAXY 30 (G-30)","OBJECT_ID":"2020-056C","EPOCH":"2026-09-12T06:28:02.056800","MEAN_MOTION":1.00271549,"ECCENTRICITY":0.00022071,"INCLINATION":0.0228,"RA_OF_ASC_NODE":160.5572,"ARG_OF_PERICENTER":10.2914,"MEAN_ANOMALY":152.4352,"EPHEMERIS_TYPE":0,"CLASSIFICATION_TYPE":"U","NORAD_CAT_ID":46114,"ELEMENT_SET_NO":999,"REV_AT_EPOCH":2216,"BSTAR":0,"MEAN_MOTION_DOT":0,"MEAN_MOTION_DDOT":0}]